Terminal Aerodrome Forecast
Issued by NWS Rapid City, SD

Home | Current Version | Previous Version | Graphics & Text | Print | Product List | Glossary On
Versions: 1 2 3 4 5 6 7 8 9 10 11 12 13 14 15 16 17 18 19
000
FTUS43 KUNR 101120
TAFRAP
TAF
KRAP 101120Z 1012/1112 34013KT P6SM SCT250
     FM101400 32020G30KT P6SM SCT250
     FM110100 30010KT P6SM SCT150
     FM110900 33032G48KT P6SM SCT150=

USA.gov is the U.S. government's official web portal to all federal, state and local government web resources and services.